Location: Ch�tillon
(48.8024°N, 2.2935°E)
Time: 07:52:55
(UTC+00:00)

LO-87 - Pass Details

Date: 06 July 2022
Orbit: 451 x 466 km, 97.4° (Epoch: 09 August)

Event Time Altitude Azimuth Distance (km) Brightness Sun altitude
Exits shadow 22:19:58 15° 98° (E) 1,356 ? -15.4°
Maximum altitude 22:21:32 19° 65° (ENE) 1,165 ? -15.5°
Drops below altitude 10° 22:24:05 10° 18° (NNE) 1,633 ? -15.7°
Sets 22:26:33 0° 1° (N) 2,518 ? -15.9°
